COSMOS 252 DEB, 3785

Orbit data source: Space-Track

COSMOS 252 DEB, 3785 is space debris in LEO originally from a launch on Fri, 01 Nov 1968 UTC launched from the Tyuratam Missile And Space Complex (TTMTR). Debris objects in space refer to the collection of defunct objects orbiting the Earth. Examples of debris include non-operational satellites, rocket bodies, and fragments generated from explosions, collisions, or faulty payload assembly.

Loading next visibility...
Identifier
3785, 1968-097AX
Orbit
LEO
Country
Flag of CISCIS
Related business
Manufacturer
Unknown
Mission
Spacecraft
Bus & Motor
Unknown
Mass
Unknown
Launch date (UTC)
1968-11-01 (58 years ago)
Launch vehicle
Unknown
Launch site
Tyuratam Missile And Space Complex (TTMTR)
Object type
Payload
Rocket body
Debris
Shape & HBR
Unknown shape, 0.1 m
Radar Cross Section
Small (<0.1 m²)

Expand to show TLE details & history
Last TLE update: 14 hours ago

TLE from 14 hours ago
0 COSMOS 252 DEB
1 03785U 68097AX  26128.15633815  .00001114  00000-0  14106-2 0  9995
2 03785  62.2543  30.3359 0788633  62.6942 305.2095 12.79062996551224
Epoch: 2026-05-08T03:45Z
TLE epoch observation values (Epoch: 2026-05-08T03:45:07.616Z)
Latitude
Longitude
108.062°
Altitude
1,029.926 km
Speed
7.486 km/s
True Right ascension
02h 01m 20s
True Declination
0° 00' 00"
Sunlit
Object was in daylight at epoch
Visualization orbit readout
Latitude
Unknown
Longitude
Unknown
Altitude
Unknown
Speed
Unknown
Apparent Right ascension
Unknown
Apparent Declination
Unknown
Sunlit
N/A
Visualization observer readout
Local Sidereal Time
02:19:35
Azimuth
Unknown
Elevation
Unknown
Doppler factor
Unknown
Orbital elements
Apogee altitude
1,953.25 km
Perigee altitude
735.226 km
Semi-major axis
7,722.375 km
Eccentricity
0.07886
Inclination
62.2543°
RAAN
30.3359°
Arg. of periapsis
62.6942°
True anomaly
297.40631°
Mean anomaly
305.2095°
Eccentric anomaly
301.35068°
Mean motion
3.19828 °/min
Orbital period
112.56 mins
BSTAR
0.0014106
Loading maneuver chart data...
Computing Atmospheric mass density...

Documentation

Showing up to 5 results
|